When you browse on this site, cookies collect data to enhance your experience and personalize the content and advertising you see.
Visit our Privacy Policy to learn more. By continuing to use the site, you agree to this use of cookies and data.
  • In Hungary
  • List of Countries
  • For 7 days
  • Water Temperature
  • Weather Map
  • News
  • Weather Widgets
  • user-avatar
    Login

    Hourly Weather Milowice

    Today, 8 December, Sunday

    Time Temperature Precipitation Wind Pressure Humidity
    00:00 +4°C° 0 mm 6 mps 743 mmHg 82%
    01:00 +5°C° 0 mm 5 mps 744 mmHg 80%
    02:00 +5°C° 0 mm 5 mps 743 mmHg 81%
    03:00 +3°C° 0 mm 5 mps 743 mmHg 82%
    04:00 +4°C° 0 mm 4 mps 743 mmHg 83%
    05:00 +4°C° 0 mm 4 mps 743 mmHg 84%
    06:00 +3°C° 0 mm 5 mps 743 mmHg 84%
    07:00 +2°C° 0 mm 5 mps 743 mmHg 84%
    08:00 +3°C° 0 mm 5 mps 742 mmHg 81%
    09:00 +4°C° 0 mm 6 mps 742 mmHg 78%
    10:00 +4°C° 0 mm 7 mps 741 mmHg 75%
    11:00 +5°C° 0 mm 7 mps 741 mmHg 72%
    12:00 +5°C° 0 mm 7 mps 740 mmHg 70%
    13:00 +6°C° 0 mm 7 mps 739 mmHg 68%
    14:00 +6°C° 0 mm 7 mps 739 mmHg 69%
    15:00 +5°C° 0 mm 7 mps 738 mmHg 70%
    16:00 +5°C° 0 mm 6 mps 738 mmHg 72%
    17:00 +7°C° 0 mm 6 mps 738 mmHg 72%
    18:00 +6°C° 0 mm 7 mps 738 mmHg 72%
    19:00 +6°C° 0 mm 7 mps 737 mmHg 72%
    20:00 +6°C° 0.3 mm 7 mps 737 mmHg 74%
    21:00 +6°C° 0.3 mm 7 mps 737 mmHg 75%
    22:00 +6°C° 0.3 mm 8 mps 736 mmHg 77%
    23:00 +6°C° 0.1 mm 7 mps 736 mmHg 76%

    Tomorrow, 9 December, Monday

    Time Temperature Precipitation Wind Pressure Humidity
    00:00 +6°C° 0.1 mm 7 mps 736 mmHg 76%
    01:00 +6°C° 0.1 mm 7 mps 736 mmHg 76%
    02:00 +7°C° 0.5 mm 6 mps 736 mmHg 80%
    03:00 +7°C° 0.5 mm 6 mps 735 mmHg 83%
    04:00 +7°C° 0.5 mm 5 mps 735 mmHg 86%
    05:00 +7°C° 0.2 mm 5 mps 735 mmHg 85%
    06:00 +7°C° 0.2 mm 4 mps 735 mmHg 84%
    07:00 +7°C° 0.2 mm 4 mps 735 mmHg 83%
    08:00 +7°C° 0 mm 5 mps 736 mmHg 78%
    09:00 +7°C° 0 mm 5 mps 736 mmHg 73%
    10:00 +7°C° 0 mm 6 mps 736 mmHg 68%
    11:00 +7°C° 0 mm 6 mps 736 mmHg 65%
    12:00 +7°C° 0 mm 6 mps 736 mmHg 62%
    13:00 +8°C° 0 mm 6 mps 736 mmHg 59%
    14:00 +7°C° 0 mm 6 mps 735 mmHg 62%
    15:00 +6°C° 0 mm 5 mps 735 mmHg 65%
    16:00 +6°C° 0 mm 5 mps 735 mmHg 69%
    17:00 +5°C° 0 mm 5 mps 735 mmHg 71%
    18:00 +4°C° 0 mm 6 mps 735 mmHg 73%
    19:00 +4°C° 0 mm 6 mps 736 mmHg 76%
    20:00 +4°C° 0 mm 6 mps 736 mmHg 76%
    21:00 +4°C° 0 mm 6 mps 736 mmHg 77%
    22:00 +4°C° 0 mm 6 mps 737 mmHg 78%
    23:00 +4°C° 0 mm 6 mps 737 mmHg 79%

    Day after tomorrow, 10 December, Tuesday

    Time Temperature Precipitation Wind Pressure Humidity
    00:00 +4°C° 0 mm 6 mps 738 mmHg 80%
    01:00 +3°C° 0 mm 6 mps 739 mmHg 80%
    02:00 +3°C° 0.1 mm 6 mps 739 mmHg 79%
    03:00 +3°C° 0.1 mm 6 mps 740 mmHg 77%
    04:00 +3°C° 0.1 mm 6 mps 741 mmHg 76%
    05:00 +2°C° 0 mm 7 mps 742 mmHg 76%
    06:00 0°C° 0 mm 7 mps 743 mmHg 77%
    07:00 0°C° 0 mm 7 mps 743 mmHg 78%
    08:00 0°C° 0.1 mm 7 mps 744 mmHg 82%
    09:00 0°C° 0.1 mm 7 mps 745 mmHg 86%
    10:00 0°C° 0.1 mm 7 mps 745 mmHg 89%
    11:00 0°C° 0.4 mm 7 mps 745 mmHg 88%
    12:00 0°C° 0.4 mm 7 mps 746 mmHg 87%
    13:00 0°C° 0.4 mm 7 mps 746 mmHg 86%
    14:00 0°C° 0.1 mm 7 mps 747 mmHg 87%
    15:00 0°C° 0.1 mm 7 mps 747 mmHg 88%
    16:00 0°C° 0.1 mm 7 mps 748 mmHg 89%
    17:00 0°C° 0 mm 7 mps 749 mmHg 84%
    18:00 +1°C° 0 mm 6 mps 749 mmHg 80%
    19:00 +1°C° 0 mm 6 mps 750 mmHg 76%
    20:00 0°C° 0 mm 5 mps 750 mmHg 75%
    21:00 0°C° 0 mm 4 mps 750 mmHg 74%
    22:00 0°C° 0 mm 3 mps 751 mmHg 72%
    23:00 0°C° 0 mm 3 mps 751 mmHg 76%

    11 December, Wednesday

    Time Temperature Precipitation Wind Pressure Humidity
    00:00 -1°C° 0 mm 2 mps 751 mmHg 80%
    01:00 -2°C° 0 mm 2 mps 751 mmHg 84%
    02:00 -2°C° 0 mm 2 mps 750 mmHg 84%
    03:00 -2°C° 0 mm 2 mps 750 mmHg 84%
    04:00 0°C° 0 mm 1 mps 750 mmHg 84%
    05:00 -2°C° 0 mm 2 mps 749 mmHg 82%
    06:00 -2°C° 0 mm 2 mps 749 mmHg 80%
    07:00 -2°C° 0 mm 3 mps 749 mmHg 78%
    08:00 -3°C° 0 mm 4 mps 748 mmHg 75%
    09:00 -2°C° 0 mm 4 mps 748 mmHg 72%
    10:00 -1°C° 0 mm 5 mps 748 mmHg 68%
    11:00 -1°C° 0 mm 5 mps 747 mmHg 65%
    12:00 0°C° 0 mm 5 mps 746 mmHg 61%
    13:00 +1°C° 0 mm 5 mps 746 mmHg 57%
    14:00 0°C° 0 mm 5 mps 745 mmHg 60%
    15:00 0°C° 0 mm 4 mps 744 mmHg 63%
    16:00 -1°C° 0 mm 4 mps 744 mmHg 65%
    17:00 -1°C° 0 mm 4 mps 743 mmHg 67%
    18:00 -2°C° 0 mm 5 mps 743 mmHg 69%
    19:00 -2°C° 0 mm 5 mps 743 mmHg 70%
    20:00 -2°C° 0 mm 5 mps 743 mmHg 71%
    21:00 -2°C° 0 mm 5 mps 742 mmHg 72%
    22:00 -2°C° 0 mm 5 mps 742 mmHg 73%
    23:00 -2°C° 0 mm 5 mps 742 mmHg 72%

    12 December, Thursday

    Time Temperature Precipitation Wind Pressure Humidity
    00:00 -1°C° 0 mm 5 mps 741 mmHg 72%
    01:00 -1°C° 0 mm 5 mps 741 mmHg 71%
    02:00 -1°C° 0.2 mm 5 mps 741 mmHg 76%
    03:00 -1°C° 0.2 mm 5 mps 741 mmHg 81%
    04:00 -1°C° 0.2 mm 5 mps 740 mmHg 86%
    05:00 -1°C° 0 mm 5 mps 741 mmHg 84%
    06:00 -1°C° 0 mm 5 mps 741 mmHg 82%
    07:00 -1°C° 0 mm 4 mps 741 mmHg 79%
    08:00 -1°C° 0 mm 5 mps 741 mmHg 78%
    09:00 0°C° 0 mm 5 mps 741 mmHg 77%
    10:00 +1°C° 0 mm 5 mps 741 mmHg 75%
    11:00 +1°C° 0 mm 5 mps 741 mmHg 74%
    12:00 +2°C° 0 mm 5 mps 741 mmHg 72%
    13:00 +2°C° 0 mm 5 mps 741 mmHg 71%
    14:00 +1°C° 0 mm 4 mps 741 mmHg 75%
    15:00 +1°C° 0 mm 3 mps 741 mmHg 78%
    16:00 +1°C° 0 mm 3 mps 742 mmHg 82%
    17:00 0°C° 0 mm 3 mps 742 mmHg 83%
    18:00 0°C° 0 mm 3 mps 742 mmHg 84%
    19:00 -1°C° 0 mm 3 mps 742 mmHg 85%
    20:00 -1°C° 0 mm 3 mps 742 mmHg 85%
    21:00 -1°C° 0 mm 3 mps 741 mmHg 86%
    22:00 -2°C° 0 mm 4 mps 741 mmHg 87%
    23:00 -2°C° 0 mm 4 mps 740 mmHg 85%

    13 December, Friday

    Time Temperature Precipitation Wind Pressure Humidity
    00:00 -2°C° 0 mm 5 mps 739 mmHg 84%
    01:00 -2°C° 0 mm 5 mps 739 mmHg 82%
    02:00 -3°C° 0 mm 6 mps 737 mmHg 78%
    03:00 -3°C° 0 mm 7 mps 736 mmHg 75%
    04:00 -2°C° 0 mm 8 mps 735 mmHg 72%
    05:00 -3°C° 0 mm 9 mps 734 mmHg 69%
    06:00 -2°C° 0 mm 10 mps 733 mmHg 67%
    07:00 -2°C° 0 mm 11 mps 731 mmHg 65%
    08:00 0°C° 0 mm 10 mps 730 mmHg 60%
    09:00 0°C° 0 mm 10 mps 730 mmHg 56%
    10:00 +1°C° 0 mm 10 mps 729 mmHg 52%
    11:00 +1°C° 0.2 mm 10 mps 728 mmHg 56%
    12:00 +1°C° 0.2 mm 10 mps 727 mmHg 61%
    13:00 +1°C° 0.2 mm 9 mps 726 mmHg 66%
    14:00 +1°C° 0 mm 9 mps 726 mmHg 68%
    15:00 0°C° 0 mm 8 mps 726 mmHg 71%
    16:00 0°C° 0 mm 7 mps 726 mmHg 73%
    17:00 +1°C° 0.3 mm 6 mps 727 mmHg 80%
    18:00 +1°C° 0.3 mm 6 mps 727 mmHg 86%
    19:00 0°C° 0.3 mm 5 mps 728 mmHg 93%
    20:00 0°C° 0 mm 5 mps 728 mmHg 88%
    21:00 +1°C° 0 mm 6 mps 729 mmHg 83%
    22:00 +1°C° 0 mm 6 mps 729 mmHg 78%
    23:00 +1°C° 0 mm 6 mps 730 mmHg 77%
    Show more